Aitkin, MN

3:33 PM CDT on June 25, 2017 (GMT -0500)
Aitkin Municipal / Steve Kurtz Field

Weather History for KAIT - November, 2012

Change the Weather History Date:

Saturday, November 17, 2012

  Actual Average Record
Temperature  
Mean Temperature 42 °F -  
Max Temperature 51 °F 36 °F 66 °F (2001)
Min Temperature 33 °F 22 °F -8 °F (1959)
Degree Days  
Heating Degree Days 23    
Moisture  
Dew Point 30 °F    
Average Humidity 59    
Maximum Humidity 75    
Minimum Humidity 44    
Precipitation  
Precipitation 0.00 in - - ()
Sea Level Pressure  
Sea Level Pressure 30.16 in    
Wind  
Wind Speed 11 mph (SSE)    
Max Wind Speed 16 mph    
Max Gust Speed 21 mph    
Visibility 10 miles    
Events      
Averages and records for this station are not official NWS values.
T = Trace of Precipitation, MM = Missing Value Source: NWS Daily Summary

Daily Weather History Graph

Daily Weather History Graph

Search for Another Location

Airport or City:

Trip Planner

Search our weather history database for the weather conditions in past years. The results will help you decide how hot, cold, wet, or windy it might be!

Date:

Astronomy

Nov. 17, 2012 Rise Set
Actual Time 7:20 AM CST 4:38 PM CST
Civil Twilight 6:47 AM CST 5:11 PM CST
Nautical Twilight 6:10 AM CST 5:48 PM CST
Astronomical Twilight 5:34 AM CST 6:24 PM CST
Moon 11:05 AM CST (11/17) 8:50 PM CST (11/17)
Length of Visible Light 10h 24m
Length of Day
9h 18m
Waxing Crescent, 20% of the Moon is Illuminated
Nov 17
Waxing Crescent
Nov 20
First Quarter
Nov 28
Full
Dec 6
Last Quarter
Dec 13
New

Hourly Weather History & Observations

Time (CST) Temp. Windchill Dew Point Humidity Pressure Visibility Wind Dir Wind Speed Gust Speed Precip Events Conditions
12:13 AM 35.6 °F 28.6 °F 24.8 °F 65% 30.24 in 10.0 mi SSE 9.2 mph - N/A   Clear
12:32 AM 35.6 °F 28.0 °F 24.8 °F 65% 30.23 in 10.0 mi SSE 10.4 mph - N/A   Clear
12:52 AM 35.6 °F 28.6 °F 24.8 °F 65% 30.23 in 10.0 mi SSE 9.2 mph 16.1 mph N/A   Clear
1:13 AM 35.6 °F 27.1 °F 24.8 °F 65% 30.22 in 10.0 mi SSE 12.7 mph - N/A   Clear
1:32 AM 35.6 °F 29.2 °F 24.8 °F 65% 30.21 in 10.0 mi SSE 8.1 mph - N/A   Clear
1:52 AM 35.6 °F 28.0 °F 24.8 °F 65% 30.21 in 10.0 mi SSE 10.4 mph - N/A   Clear
2:13 AM 33.8 °F 25.8 °F 24.8 °F 70% 30.21 in 10.0 mi SSE 10.4 mph - N/A   Clear
2:32 AM 33.8 °F 25.3 °F 24.8 °F 70% 30.20 in 10.0 mi SSE 11.5 mph - N/A   Clear
2:52 AM 35.6 °F 27.5 °F 26.6 °F 70% 30.20 in 10.0 mi SSE 11.5 mph - N/A   Clear
3:13 AM 35.6 °F 29.2 °F 26.6 °F 70% 30.19 in 10.0 mi SSE 8.1 mph - N/A   Clear
3:32 AM 35.6 °F 27.1 °F 26.6 °F 70% 30.18 in 10.0 mi SSE 12.7 mph 17.3 mph N/A   Clear
3:52 AM 35.6 °F 27.5 °F 26.6 °F 70% 30.18 in 10.0 mi SSE 11.5 mph 19.6 mph N/A   Clear
4:13 AM 35.6 °F 27.5 °F 26.6 °F 70% 30.17 in 10.0 mi SSE 11.5 mph 16.1 mph N/A   Clear
4:32 AM 35.6 °F 27.5 °F 26.6 °F 70% 30.17 in 10.0 mi SSE 11.5 mph 19.6 mph N/A   Clear
4:52 AM 35.6 °F 27.1 °F 28.4 °F 75% 30.17 in 10.0 mi SSE 12.7 mph 18.4 mph N/A   Clear
5:13 AM 35.6 °F 27.5 °F 28.4 °F 75% 30.16 in 10.0 mi South 11.5 mph 18.4 mph N/A   Clear
5:32 AM 35.6 °F 27.5 °F 28.4 °F 75% 30.16 in 10.0 mi SSE 11.5 mph 18.4 mph N/A   Clear
5:52 AM 35.6 °F 28.6 °F 28.4 °F 75% 30.16 in 10.0 mi SSE 9.2 mph 16.1 mph N/A   Clear
6:13 AM 35.6 °F 27.5 °F 28.4 °F 75% 30.16 in 10.0 mi South 11.5 mph - N/A   Clear
6:32 AM 37.4 °F 30.8 °F 28.4 °F 70% 30.16 in 10.0 mi South 9.2 mph - N/A   Clear
6:52 AM 37.4 °F 30.8 °F 28.4 °F 70% 30.16 in 10.0 mi South 9.2 mph - N/A   Clear
7:13 AM 37.4 °F 30.8 °F 28.4 °F 70% 30.16 in 10.0 mi South 9.2 mph - N/A   Clear
7:32 AM 37.4 °F 30.3 °F 28.4 °F 70% 30.16 in 10.0 mi South 10.4 mph - N/A   Clear
7:52 AM 37.4 °F 30.3 °F 28.4 °F 70% 30.16 in 7.0 mi South 10.4 mph - N/A   Clear
8:13 AM 39.2 °F 32.5 °F 30.2 °F 70% 30.17 in 10.0 mi South 10.4 mph - N/A   Clear
8:32 AM 39.2 °F 33.0 °F 30.2 °F 70% 30.17 in 10.0 mi South 9.2 mph - N/A   Clear
8:52 AM 41.0 °F 34.3 °F 30.2 °F 65% 30.17 in 10.0 mi SSE 11.5 mph 16.1 mph N/A   Clear
9:13 AM 41.0 °F 33.5 °F 30.2 °F 65% 30.18 in 10.0 mi South 13.8 mph - N/A   Clear
9:32 AM 42.8 °F 36.6 °F 30.2 °F 61% 30.18 in 10.0 mi South 11.5 mph - N/A   Clear
9:52 AM 42.8 °F 36.2 °F 30.2 °F 61% 30.18 in 10.0 mi South 12.7 mph 19.6 mph N/A   Clear
10:13 AM 44.6 °F 37.4 °F 32.0 °F 61% 30.18 in 10.0 mi SSE 16.1 mph 19.6 mph N/A   Clear
10:32 AM 46.4 °F 41.1 °F 30.2 °F 53% 30.17 in 10.0 mi SSE 11.5 mph - N/A   Clear
10:53 AM 46.4 °F 40.1 °F 30.2 °F 53% 30.17 in 10.0 mi SSE 15.0 mph - N/A   Clear
11:13 AM 46.4 °F 40.1 °F 30.2 °F 53% 30.17 in 10.0 mi SSE 15.0 mph 18.4 mph N/A   Clear
11:32 AM 48.2 °F - 30.2 °F 50% 30.16 in 10.0 mi SSE 10.4 mph 19.6 mph N/A   Clear
11:53 AM 48.2 °F - 30.2 °F 50% 30.16 in 10.0 mi South 11.5 mph 17.3 mph N/A   Clear
12:13 PM 48.2 °F - 32.0 °F 54% 30.16 in 10.0 mi SSE 8.1 mph - N/A   Clear
12:32 PM 51.8 °F - 32.0 °F 47% 30.15 in 10.0 mi South 11.5 mph 20.7 mph N/A   Clear
12:53 PM 50.0 °F - 32.0 °F 50% 30.15 in 10.0 mi South 12.7 mph 19.6 mph N/A   Clear
1:13 PM 50.0 °F - 32.0 °F 50% 30.15 in 10.0 mi South 12.7 mph 17.3 mph N/A   Clear
1:32 PM 50.0 °F - 32.0 °F 50% 30.15 in 10.0 mi South 9.2 mph - N/A   Clear
1:53 PM 51.8 °F - 32.0 °F 47% 30.15 in 10.0 mi SSE 9.2 mph - N/A   Scattered Clouds
2:13 PM 51.8 °F - 32.0 °F 47% 30.15 in 10.0 mi South 8.1 mph - N/A   Scattered Clouds
2:32 PM 51.8 °F - 30.2 °F 44% 30.14 in 10.0 mi South 8.1 mph - N/A   Clear
2:53 PM 51.8 °F - 32.0 °F 47% 30.14 in 10.0 mi SSE 8.1 mph - N/A   Clear
3:13 PM 51.8 °F - 30.2 °F 44% 30.13 in 10.0 mi SSE 8.1 mph - N/A   Clear
3:32 PM 51.8 °F - 30.2 °F 44% 30.13 in 10.0 mi SSE 9.2 mph - N/A   Clear
3:53 PM 51.8 °F - 30.2 °F 44% 30.12 in 10.0 mi SSE 8.1 mph - N/A   Clear
4:13 PM 51.8 °F - 30.2 °F 44% 30.13 in 10.0 mi SSE 9.2 mph - N/A   Clear
4:32 PM 51.8 °F - 30.2 °F 44% 30.12 in 10.0 mi SSE 8.1 mph - N/A   Clear
4:53 PM 51.8 °F - 30.2 °F 44% 30.12 in 10.0 mi SSE 10.4 mph - N/A   Clear
5:12 PM 51.8 °F - 30.2 °F 44% 30.12 in 10.0 mi SSE 10.4 mph - N/A   Scattered Clouds
5:32 PM 51.8 °F - 30.2 °F 44% 30.12 in 10.0 mi SSE 11.5 mph - N/A   Mostly Cloudy
5:52 PM 51.8 °F - 30.2 °F 44% 30.12 in 10.0 mi SSE 11.5 mph 19.6 mph N/A   Scattered Clouds
6:12 PM 51.8 °F - 30.2 °F 44% 30.12 in 10.0 mi SSE 11.5 mph 19.6 mph N/A   Clear
6:33 PM 50.0 °F - 32.0 °F 50% 30.13 in 10.0 mi SSE 8.1 mph - N/A   Clear
6:52 PM 50.0 °F - 33.8 °F 54% 30.14 in 10.0 mi SSE 10.4 mph 18.4 mph N/A   Mostly Cloudy
7:12 PM 50.0 °F - 33.8 °F 54% 30.14 in 10.0 mi SSE 12.7 mph 19.6 mph N/A   Overcast
7:33 PM 50.0 °F - 33.8 °F 54% 30.14 in 10.0 mi SSE 11.5 mph 16.1 mph N/A   Overcast
7:52 PM 50.0 °F - 33.8 °F 54% 30.14 in 10.0 mi SSE 12.7 mph - N/A   Overcast
8:12 PM 48.2 °F - 33.8 °F 58% 30.14 in 10.0 mi SSE 12.7 mph 20.7 mph N/A   Scattered Clouds
8:33 PM 48.2 °F - 33.8 °F 58% 30.14 in 10.0 mi SSE 10.4 mph - N/A   Clear
8:52 PM 48.2 °F - 33.8 °F 58% 30.14 in 10.0 mi SSE 10.4 mph - N/A   Clear
9:12 PM 48.2 °F - 33.8 °F 58% 30.13 in 10.0 mi SSE 11.5 mph - N/A   Scattered Clouds
9:33 PM 48.2 °F - 33.8 °F 58% 30.13 in 10.0 mi SSE 6.9 mph 18.4 mph N/A   Scattered Clouds
9:52 PM 48.2 °F - 33.8 °F 58% 30.13 in 10.0 mi SSE 9.2 mph - N/A   Clear
10:12 PM 48.2 °F - 33.8 °F 58% 30.13 in 10.0 mi SSE 9.2 mph - N/A   Clear
10:33 PM 48.2 °F - 33.8 °F 58% 30.12 in 10.0 mi SSE 10.4 mph 17.3 mph N/A   Clear
10:53 PM 48.2 °F - 33.8 °F 58% 30.12 in 10.0 mi SSE 12.7 mph - N/A   Clear
11:12 PM 48.2 °F - 33.8 °F 58% 30.13 in 10.0 mi SSE 10.4 mph - N/A   Clear
11:33 PM 48.2 °F - 33.8 °F 58% 30.12 in 10.0 mi SSE 9.2 mph - N/A   Clear
11:53 PM 48.2 °F - 33.8 °F 58% 30.12 in 10.0 mi SSE 10.4 mph - N/A   Mostly Cloudy